Regional Weather Roundup
Issued by NWS

Home | Current Version | Previous Version | Graphics & Text | Print | Product List | Glossary On
Versions: 1 2 3 4 5 6 7 8 9 10 11 12 13 14 15 16 17 18 19 20 21 22 23 24 25 26 27 28 29 30 31 32 33 34 35 36 37 38 39 40 41 42 43 44 45 46 47 48 49 50
000
ASUS43 KLOT 062000
RWRIL

ILLINOIS REGIONAL WEATHER ROUNDUP
NATIONAL WEATHER SERVICE CHICAGO/ROMEOVILLE IL
300 PM CDT MON JUL 06 2015

NOTE: "FAIR" INDICATES FEW OR NO CLOUDS BELOW 12,000 FEET WITH NO
SIGNIFICANT WEATHER AND/OR OBSTRUCTIONS TO VISIBILITY.

* THESE STATIONS ARE NOT UNDER NWS QUALITY CONTROL. THEY ALSO MAY NOT
  REPORT WEATHER SUCH AS PRECIPITATION OR FOG.

ILZ001-002-007-009-015-016-024-062100-
NORTHWEST ILLINOIS

CITY           SKY/WX    TMP DP  RH WIND       PRES   REMARKS
MOLINE         CLOUDY    81  73  76 CALM      29.87F HX  86
STERLING*      CLOUDY    79  73  83 CALM      29.89S HX  82
$$

ILZ003-004-008-010-011-017-018-062100-
NORTH CENTRAL ILLINOIS

CITY           SKY/WX    TMP DP  RH WIND       PRES   REMARKS
ROCKFORD       LGT RAIN  76  71  85 S7        29.90R
$$

ILZ005-006-012>014-019>023-062100-
NORTHEAST ILLINOIS

CITY           SKY/WX    TMP DP  RH WIND       PRES   REMARKS
CHICAGO-OHARE  LGT RAIN  73  69  87 VRB3      29.91F
CHICAGO-MIDWAY TSTM      81  66  60 NW18G26   29.93R HX  83
AURORA         CLOUDY    77  69  76 S8        29.91F
WAUKEGAN       LGT RAIN  72  70  93 S6        29.89F
DUPAGE AIRPORT CLOUDY    72  69  90 S7        29.91S
WHEELING       LGT RAIN  73  68  84 CALM      29.93F
NORTHERLY ISL    N/A     85  66  53 SW13        N/A  HX  87
$$

LMZ740>746-062100-
SOUTHERN LAKE MICHIGAN

STATION/POSITION SKY/WX   TEMP    WIND        PRES    VSBY  WAVE
                          AIR SEA DIR/SP/G                  HT/PER
                          (F)     (DEG/KT/KT) (MB)    (MI)  (FT/S)
HARRISON CRIB              78     180/ 15/ 17   N/A
BURNHAM HARBOR             84     190/ 14/ 16   N/A
CALUMET HARBOR             84     190/  8/ 15   N/A
BURNS HARBOR               84     190/ 15/ 21 1013.9F
MICHIGAN CITY              81     150/ 12/ 16   N/A
MICHIGAN CITY 6N           77 67  190/ 10/ 16   N/A           1/ 2
ST. JOSEPH                 74 67  240/  8/  8   N/A           1/ 2
$$

ILZ025>027-034>036-040-047-049-050-058-095>099-062100-
WEST-CENTRAL ILLINOIS

CITY           SKY/WX    TMP DP  RH WIND       PRES   REMARKS
QUINCY         PTSUNNY   87  74  64 S13       29.89F HX  95
$$

ILZ028>032-037-038-041>044-048-051>054-059>061-062100-
CENTRAL ILLINOIS

CITY           SKY/WX    TMP DP  RH WIND       PRES   REMARKS
DECATUR        PTSUNNY   85  74  69 S14G25    29.95F HX  92
PEORIA         CLOUDY    87  75  67 SW10      29.90F HX  96
SPRINGFIELD    CLOUDY    88  76  67 S9        29.92F HX  99
TAYLORVILLE    NOT AVBL
$$

ILZ033-039-045-046-055>057-062-063-062100-
EAST-CENTRAL ILLINOIS

CITY           SKY/WX    TMP DP  RH WIND       PRES   REMARKS
CHAMPAIGN      PTSUNNY   86  73  65 S12G20    29.96F HX  93
MATTOON        MOSUNNY   84  73  69 S10       29.97F HX  90
$$

ILZ079-100>102-062100-
SOUTHWEST ILLINOIS

CITY           SKY/WX    TMP DP  RH WIND       PRES   REMARKS
CAHOKIA*       LGT RAIN  75  70  84 S7        29.96S
$$

ILZ064>066-069>071-074>076-080>082-084>086-088>090-092>094-062100-
SOUTH-CENTRAL ILLINOIS

CITY           SKY/WX    TMP DP  RH WIND       PRES   REMARKS
CARBONDALE     PTSUNNY   85  73  67 SW15      30.00F HX  91
MARION         PTSUNNY   84  75  74 SW12      30.01F HX  92
MT. VERNON     CLOUDY    86  73  66 S12       30.01S HX  93
$$

ILZ067-068-072-073-078-083-087-091-062100-
SOUTHEAST ILLINOIS

CITY           SKY/WX    TMP DP  RH WIND       PRES   REMARKS
LAWRENCEVILLE  MOSUNNY   85  74  69 S14       30.00F HX  92
$$

ABBREVIATIONS USED IN REMARKS
   TC - TEMPERATURE IN CELSIUS
  WCI - WIND CHILL INDEX
   HX - HEAT INDEX
  VSB - VISIBILITY
$$




USA.gov is the U.S. government's official web portal to all federal, state and local government web resources and services.